Time,TemperatureF,DewpointF,PressureIn,WindDirection,WindDirectionDegrees,WindSpeedMPH,WindSpeedGustMPH,Humidity,HourlyPrecipIn,Conditions,Clouds,dailyrainin,SoftwareType,DateUTC
2013-08-29 00:02:00,77.0,62.5,29.80,SSW,199,2.0,6.0,61,0.00,,,0.00,VWS V14.01,2013-08-29 05:02:00,
2013-08-29 00:07:00,77.0,62.1,29.80,SSW,199,2.0,5.0,60,0.00,,,0.00,VWS V14.01,2013-08-29 05:07:00,
2013-08-29 00:12:00,76.8,62.3,29.80,SSW,199,2.0,5.0,61,0.00,,,0.00,VWS V14.01,2013-08-29 05:12:00,
2013-08-29 00:17:00,76.7,62.2,29.78,SSW,199,1.0,6.0,61,0.00,,,0.00,VWS V14.01,2013-08-29 05:17:00,
2013-08-29 00:22:00,76.5,62.5,29.78,SSW,199,0.0,5.0,62,0.00,,,0.00,VWS V14.01,2013-08-29 05:22:00,
2013-08-29 00:27:00,76.1,61.7,29.78,SSW,199,2.0,5.0,61,0.00,,,0.00,VWS V14.01,2013-08-29 05:27:00,
2013-08-29 00:32:00,76.0,62.0,29.78,SSW,199,1.0,5.0,62,0.00,,,0.00,VWS V14.01,2013-08-29 05:32:00,
2013-08-29 00:37:00,75.8,62.8,29.78,SSW,199,2.0,4.0,64,0.00,,,0.00,VWS V14.01,2013-08-29 05:37:00,
2013-08-29 00:42:00,75.6,63.0,29.78,SSW,199,2.0,5.0,65,0.00,,,0.00,VWS V14.01,2013-08-29 05:42:00,
2013-08-29 00:47:00,75.4,62.4,29.78,SSW,199,2.0,5.0,64,0.00,,,0.00,VWS V14.01,2013-08-29 05:47:00,
2013-08-29 00:52:00,75.3,63.2,29.78,SSW,199,5.0,5.0,66,0.00,,,0.00,VWS V14.01,2013-08-29 05:52:00,
2013-08-29 00:57:00,75.1,63.4,29.78,SSW,199,3.0,5.0,67,0.00,,,0.00,VWS V14.01,2013-08-29 05:57:00,
2013-08-29 01:02:00,75.1,63.8,29.78,SSW,199,4.0,5.0,68,0.00,,,0.00,VWS V14.01,2013-08-29 06:02:00,
2013-08-29 01:07:00,74.9,63.2,29.78,SSW,199,2.0,6.0,67,0.00,,,0.00,VWS V14.01,2013-08-29 06:07:00,
2013-08-29 01:12:00,74.7,64.3,29.78,SSW,199,2.0,6.0,70,0.00,,,0.00,VWS V14.01,2013-08-29 06:12:00,
2013-08-29 01:17:00,74.6,64.2,29.78,SSW,199,2.0,6.0,70,0.00,,,0.00,VWS V14.01,2013-08-29 06:17:00,
2013-08-29 01:22:00,74.6,64.2,29.78,SSW,199,2.0,5.0,70,0.00,,,0.00,VWS V14.01,2013-08-29 06:22:00,
2013-08-29 01:27:00,74.4,63.6,29.78,SSW,199,3.0,5.0,69,0.00,,,0.00,VWS V14.01,2013-08-29 06:27:00,
2013-08-29 01:32:00,74.4,64.4,29.78,SSW,199,5.0,5.0,71,0.00,,,0.00,VWS V14.01,2013-08-29 06:32:00,
2013-08-29 01:37:00,74.2,64.2,29.78,SSW,199,3.0,5.0,71,0.00,,,0.00,VWS V14.01,2013-08-29 06:37:00,
2013-08-29 01:42:00,74.0,64.8,29.78,SSW,199,2.0,5.0,73,0.00,,,0.00,VWS V14.01,2013-08-29 06:42:00,
2013-08-29 01:47:00,73.9,64.7,29.77,SSW,199,2.0,5.0,73,0.00,,,0.00,VWS V14.01,2013-08-29 06:47:00,
2013-08-29 01:52:00,73.7,64.9,29.77,SSW,199,2.0,2.0,74,0.00,,,0.00,VWS V14.01,2013-08-29 06:52:00,
2013-08-29 01:57:00,73.5,64.7,29.77,SSW,199,2.0,3.0,74,0.00,,,0.00,VWS V14.01,2013-08-29 06:57:00,
2013-08-29 02:02:00,73.5,65.1,29.76,SSW,199,3.0,5.0,75,0.00,,,0.00,VWS V14.01,2013-08-29 07:02:00,
2013-08-29 02:07:00,73.3,64.5,29.76,SSW,199,2.0,5.0,74,0.00,,,0.00,VWS V14.01,2013-08-29 07:07:00,
2013-08-29 02:12:00,73.3,64.9,29.76,SSW,199,5.0,5.0,75,0.00,,,0.00,VWS V14.01,2013-08-29 07:12:00,
2013-08-29 02:17:00,73.2,65.9,29.76,SSW,199,2.0,5.0,78,0.00,,,0.00,VWS V14.01,2013-08-29 07:17:00,
2013-08-29 02:22:00,73.2,65.6,29.76,SSW,199,3.0,5.0,77,0.00,,,0.00,VWS V14.01,2013-08-29 07:22:00,
2013-08-29 02:27:00,73.2,65.9,29.76,SSW,199,2.0,5.0,78,0.00,,,0.00,VWS V14.01,2013-08-29 07:27:00,
2013-08-29 02:32:00,73.2,65.6,29.76,SSW,199,2.0,5.0,77,0.00,,,0.00,VWS V14.01,2013-08-29 07:32:00,
2013-08-29 02:37:00,73.2,65.9,29.76,SSW,199,2.0,5.0,78,0.00,,,0.00,VWS V14.01,2013-08-29 07:37:00,
2013-08-29 02:42:00,73.2,65.9,29.76,SSW,199,3.0,5.0,78,0.00,,,0.00,VWS V14.01,2013-08-29 07:42:00,
2013-08-29 02:47:00,73.2,65.9,29.75,SSW,199,3.0,5.0,78,0.00,,,0.00,VWS V14.01,2013-08-29 07:47:00,
2013-08-29 02:52:00,73.2,65.2,29.75,SSW,199,4.0,5.0,76,0.00,,,0.00,VWS V14.01,2013-08-29 07:52:00,
2013-08-29 02:57:00,73.2,66.3,29.75,SSW,199,3.0,5.0,79,0.00,,,0.00,VWS V14.01,2013-08-29 07:57:00,
2013-08-29 03:02:00,73.2,65.9,29.75,SSW,199,3.0,5.0,78,0.00,,,0.00,VWS V14.01,2013-08-29 08:02:00,
2013-08-29 03:07:00,73.3,65.7,29.75,SSW,198,3.0,5.0,77,0.00,,,0.00,VWS V14.01,2013-08-29 08:07:00,
2013-08-29 03:12:00,73.5,66.6,29.75,SSW,198,2.0,5.0,79,0.00,,,0.00,VWS V14.01,2013-08-29 08:12:00,
2013-08-29 03:17:00,73.5,65.9,29.75,SSW,198,2.0,6.0,77,0.00,,,0.00,VWS V14.01,2013-08-29 08:17:00,
2013-08-29 03:22:00,73.5,65.9,29.75,SSW,198,2.0,6.0,77,0.00,,,0.00,VWS V14.01,2013-08-29 08:22:00,
2013-08-29 03:27:00,73.5,66.2,29.75,SSW,199,5.0,6.0,78,0.00,,,0.00,VWS V14.01,2013-08-29 08:27:00,
2013-08-29 03:32:00,73.3,66.0,29.75,SSW,199,2.0,6.0,78,0.00,,,0.00,VWS V14.01,2013-08-29 08:32:00,
2013-08-29 03:37:00,73.3,66.8,29.75,South,185,5.0,6.0,80,0.00,,,0.00,VWS V14.01,2013-08-29 08:37:00,
2013-08-29 03:42:00,73.3,66.0,29.75,South,185,2.0,6.0,78,0.00,,,0.00,VWS V14.01,2013-08-29 08:42:00,
2013-08-29 03:47:00,73.3,66.4,29.75,South,185,2.0,6.0,79,0.00,,,0.00,VWS V14.01,2013-08-29 08:47:00,
2013-08-29 03:52:00,73.2,66.3,29.75,South,185,2.0,5.0,79,0.00,,,0.00,VWS V14.01,2013-08-29 08:52:00,
2013-08-29 03:57:00,73.2,66.3,29.75,South,185,3.0,5.0,79,0.00,,,0.00,VWS V14.01,2013-08-29 08:57:00,
2013-08-29 04:02:00,73.0,66.5,29.74,South,185,2.0,5.0,80,0.00,,,0.00,VWS V14.01,2013-08-29 09:02:00,
2013-08-29 04:07:00,72.8,65.9,29.74,South,185,3.0,5.0,79,0.00,,,0.00,VWS V14.01,2013-08-29 09:07:00,
2013-08-29 04:12:00,72.8,66.3,29.74,South,185,3.0,5.0,80,0.00,,,0.00,VWS V14.01,2013-08-29 09:12:00,
2013-08-29 04:17:00,72.7,66.2,29.74,South,185,3.0,5.0,80,0.00,,,0.00,VWS V14.01,2013-08-29 09:17:00,
2013-08-29 04:22:00,72.5,66.0,29.74,South,185,2.0,5.0,80,0.00,,,0.00,VWS V14.01,2013-08-29 09:22:00,
2013-08-29 04:27:00,72.3,66.5,29.74,South,185,3.0,5.0,82,0.00,,,0.00,VWS V14.01,2013-08-29 09:27:00,
2013-08-29 04:32:00,72.1,65.9,29.75,South,185,3.0,5.0,81,0.00,,,0.00,VWS V14.01,2013-08-29 09:32:00,
2013-08-29 04:37:00,72.0,66.2,29.75,South,185,3.0,5.0,82,0.00,,,0.00,VWS V14.01,2013-08-29 09:37:00,
2013-08-29 04:42:00,72.0,66.6,29.75,South,185,2.0,5.0,83,0.00,,,0.00,VWS V14.01,2013-08-29 09:42:00,
2013-08-29 04:47:00,71.8,67.1,29.74,South,185,3.0,5.0,85,0.00,,,0.00,VWS V14.01,2013-08-29 09:47:00,
2013-08-29 04:52:00,71.8,67.1,29.74,South,185,2.0,5.0,85,0.00,,,0.00,VWS V14.01,2013-08-29 09:52:00,
2013-08-29 04:57:00,71.6,66.9,29.74,South,185,2.0,5.0,85,0.00,,,0.00,VWS V14.01,2013-08-29 09:57:00,
2013-08-29 05:02:00,71.5,67.1,29.74,South,185,3.0,5.0,86,0.00,,,0.00,VWS V14.01,2013-08-29 10:02:00,
2013-08-29 05:07:00,71.3,66.9,29.74,South,185,2.0,5.0,86,0.00,,,0.00,VWS V14.01,2013-08-29 10:07:00,
2013-08-29 05:12:00,71.3,67.6,29.74,South,185,2.0,5.0,88,0.00,,,0.00,VWS V14.01,2013-08-29 10:12:00,
2013-08-29 05:17:00,71.3,66.9,29.75,South,185,5.0,5.0,86,0.00,,,0.00,VWS V14.01,2013-08-29 10:17:00,
2013-08-29 05:22:00,71.1,67.0,29.75,South,185,2.0,5.0,87,0.00,,,0.00,VWS V14.01,2013-08-29 10:22:00,
2013-08-29 05:27:00,71.1,67.0,29.75,South,185,3.0,5.0,87,0.00,,,0.00,VWS V14.01,2013-08-29 10:27:00,
2013-08-29 05:32:00,70.9,67.2,29.75,South,185,1.0,5.0,88,0.00,,,0.00,VWS V14.01,2013-08-29 10:32:00,
2013-08-29 05:37:00,70.8,67.4,29.75,South,185,0.0,2.0,89,0.00,,,0.00,VWS V14.01,2013-08-29 10:37:00,
2013-08-29 05:42:00,70.4,67.7,29.75,South,185,1.0,3.0,91,0.00,,,0.00,VWS V14.01,2013-08-29 10:42:00,
2013-08-29 05:47:00,70.3,68.2,29.75,South,185,2.0,3.0,93,0.00,,,0.00,VWS V14.01,2013-08-29 10:47:00,
2013-08-29 05:52:00,70.1,68.3,29.75,South,185,2.0,3.0,94,0.00,,,0.00,VWS V14.01,2013-08-29 10:52:00,
2013-08-29 05:57:00,69.9,68.7,29.75,South,185,2.0,5.0,96,0.00,,,0.00,VWS V14.01,2013-08-29 10:57:00,
2013-08-29 06:02:00,69.9,69.0,29.75,South,185,2.0,5.0,97,0.00,,,0.00,VWS V14.01,2013-08-29 11:02:00,
2013-08-29 06:07:00,69.9,69.6,29.75,South,185,1.0,3.0,99,0.00,,,0.00,VWS V14.01,2013-08-29 11:07:00,
2013-08-29 06:12:00,69.9,69.6,29.75,South,185,2.0,3.0,99,0.00,,,0.00,VWS V14.01,2013-08-29 11:12:00,
2013-08-29 06:17:00,69.9,69.9,29.75,South,185,2.0,4.0,100,0.00,,,0.00,VWS V14.01,2013-08-29 11:17:00,
2013-08-29 06:22:00,69.8,69.8,29.75,South,185,2.0,4.0,100,0.00,,,0.00,VWS V14.01,2013-08-29 11:22:00,
2013-08-29 06:27:00,69.6,69.6,29.75,South,185,2.0,5.0,100,0.00,,,0.00,VWS V14.01,2013-08-29 11:27:00,
2013-08-29 06:32:00,69.6,69.6,29.75,South,185,2.0,5.0,100,0.00,,,0.00,VWS V14.01,2013-08-29 11:32:00,
2013-08-29 06:37:00,69.4,69.4,29.75,South,185,2.0,3.0,100,0.00,,,0.00,VWS V14.01,2013-08-29 11:37:00,
2013-08-29 06:42:00,69.4,69.4,29.75,South,185,2.0,3.0,100,0.00,,,0.00,VWS V14.01,2013-08-29 11:42:00,
2013-08-29 06:47:00,69.3,69.3,29.76,South,185,2.0,3.0,100,0.00,,,0.00,VWS V14.01,2013-08-29 11:47:00,
2013-08-29 06:52:00,69.1,69.1,29.76,South,185,1.0,2.0,100,0.00,,,0.00,VWS V14.01,2013-08-29 11:52:00,
2013-08-29 06:57:00,69.3,69.3,29.76,South,185,1.0,3.0,100,0.00,,,0.00,VWS V14.01,2013-08-29 11:57:00,
2013-08-29 07:02:00,69.3,69.3,29.76,South,185,2.0,5.0,100,0.00,,,0.00,VWS V14.01,2013-08-29 12:02:00,
2013-08-29 07:07:00,69.3,69.3,29.76,South,185,1.0,3.0,100,0.00,,,0.00,VWS V14.01,2013-08-29 12:07:00,
2013-08-29 07:12:00,69.3,69.3,29.76,South,185,2.0,3.0,100,0.00,,,0.00,VWS V14.01,2013-08-29 12:12:00,
2013-08-29 07:17:00,69.3,69.3,29.77,South,185,2.0,3.0,100,0.00,,,0.00,VWS V14.01,2013-08-29 12:17:00,
2013-08-29 07:22:00,69.3,69.3,29.77,South,185,2.0,3.0,100,0.00,,,0.00,VWS V14.01,2013-08-29 12:22:00,
2013-08-29 07:27:00,69.3,69.3,29.77,South,185,3.0,3.0,100,0.00,,,0.00,VWS V14.01,2013-08-29 12:27:00,
2013-08-29 07:32:00,69.3,69.3,29.77,South,185,2.0,5.0,100,0.00,,,0.00,VWS V14.01,2013-08-29 12:32:00,
2013-08-29 07:37:00,69.1,69.1,29.77,South,185,2.0,3.0,100,0.00,,,0.00,VWS V14.01,2013-08-29 12:37:00,
2013-08-29 07:42:00,69.1,69.1,29.77,South,185,3.0,5.0,100,0.00,,,0.00,VWS V14.01,2013-08-29 12:42:00,
2013-08-29 07:47:00,68.9,68.9,29.78,South,185,2.0,5.0,100,0.00,,,0.00,VWS V14.01,2013-08-29 12:47:00,
2013-08-29 07:52:00,69.1,69.1,29.78,South,185,5.0,5.0,100,0.00,,,0.00,VWS V14.01,2013-08-29 12:52:00,
2013-08-29 07:57:00,69.4,69.4,29.78,South,185,3.0,5.0,100,0.00,,,0.00,VWS V14.01,2013-08-29 12:57:00,
2013-08-29 08:02:00,69.6,69.6,29.78,South,185,2.0,5.0,100,0.00,,,0.00,VWS V14.01,2013-08-29 13:02:00,
2013-08-29 08:07:00,69.9,69.9,29.78,South,185,2.0,3.0,100,0.00,,,0.00,VWS V14.01,2013-08-29 13:07:00,
2013-08-29 08:12:00,70.4,70.4,29.78,South,185,3.0,5.0,100,0.00,,,0.00,VWS V14.01,2013-08-29 13:12:00,
2013-08-29 08:17:00,70.8,70.8,29.79,South,185,2.0,5.0,100,0.00,,,0.00,VWS V14.01,2013-08-29 13:17:00,
2013-08-29 08:22:00,71.1,71.1,29.79,South,185,2.0,5.0,100,0.00,,,0.00,VWS V14.01,2013-08-29 13:22:00,
2013-08-29 08:27:00,71.3,71.3,29.79,South,185,2.0,5.0,100,0.00,,,0.00,VWS V14.01,2013-08-29 13:27:00,
2013-08-29 08:32:00,71.5,71.5,29.78,South,185,3.0,5.0,100,0.00,,,0.00,VWS V14.01,2013-08-29 13:32:00,
2013-08-29 08:37:00,71.6,71.6,29.78,South,185,1.0,5.0,100,0.00,,,0.00,VWS V14.01,2013-08-29 13:37:00,
2013-08-29 08:42:00,71.8,71.8,29.78,South,185,2.0,5.0,100,0.00,,,0.00,VWS V14.01,2013-08-29 13:42:00,
2013-08-29 08:47:00,72.1,72.1,29.78,South,185,1.0,5.0,100,0.00,,,0.00,VWS V14.01,2013-08-29 13:47:00,
2013-08-29 08:52:00,72.5,72.5,29.78,South,185,5.0,6.0,100,0.00,,,0.00,VWS V14.01,2013-08-29 13:52:00,
2013-08-29 08:57:00,73.0,72.1,29.78,South,185,3.0,6.0,97,0.00,,,0.00,VWS V14.01,2013-08-29 13:57:00,
2013-08-29 09:02:00,73.5,70.1,29.78,South,185,2.0,6.0,89,0.00,,,0.00,VWS V14.01,2013-08-29 14:02:00,
2013-08-29 09:07:00,73.9,69.1,29.78,South,185,2.0,5.0,85,0.00,,,0.00,VWS V14.01,2013-08-29 14:07:00,
2013-08-29 09:12:00,74.2,68.7,29.78,South,185,3.0,5.0,83,0.00,,,0.00,VWS V14.01,2013-08-29 14:12:00,
2013-08-29 09:17:00,74.6,69.1,29.78,South,185,5.0,5.0,83,0.00,,,0.00,VWS V14.01,2013-08-29 14:17:00,
2013-08-29 09:22:00,74.9,68.3,29.78,South,185,2.0,6.0,80,0.00,,,0.00,VWS V14.01,2013-08-29 14:22:00,
2013-08-29 09:27:00,75.4,68.1,29.78,South,185,3.0,6.0,78,0.00,,,0.00,VWS V14.01,2013-08-29 14:27:00,
2013-08-29 09:32:00,75.8,66.9,29.78,South,185,5.0,7.0,74,0.00,,,0.00,VWS V14.01,2013-08-29 14:32:00,
2013-08-29 09:37:00,76.3,67.8,29.78,South,185,7.0,7.0,75,0.00,,,0.00,VWS V14.01,2013-08-29 14:37:00,
2013-08-29 09:42:00,76.7,67.0,29.78,South,186,3.0,7.0,72,0.00,,,0.00,VWS V14.01,2013-08-29 14:42:00,
2013-08-29 09:47:00,77.0,66.5,29.78,South,186,5.0,7.0,70,0.00,,,0.00,VWS V14.01,2013-08-29 14:47:00,
2013-08-29 09:52:00,77.6,67.1,29.78,South,186,1.0,5.0,70,0.00,,,0.00,VWS V14.01,2013-08-29 14:52:00,
2013-08-29 09:57:00,77.9,66.5,29.78,South,186,5.0,6.0,68,0.00,,,0.00,VWS V14.01,2013-08-29 14:57:00,
2013-08-29 10:02:00,78.5,66.6,29.78,South,186,4.0,6.0,67,0.00,,,0.00,VWS V14.01,2013-08-29 15:02:00,
2013-08-29 10:07:00,78.8,66.5,29.78,South,186,1.0,5.0,66,0.00,,,0.00,VWS V14.01,2013-08-29 15:07:00,
2013-08-29 10:12:00,79.2,66.0,29.78,South,186,2.0,5.0,64,0.00,,,0.00,VWS V14.01,2013-08-29 15:12:00,
2013-08-29 10:17:00,79.9,66.2,29.77,South,186,2.0,7.0,63,0.00,,,0.00,VWS V14.01,2013-08-29 15:17:00,
2013-08-29 10:22:00,80.3,65.6,29.77,South,186,2.0,6.0,61,0.00,,,0.00,VWS V14.01,2013-08-29 15:22:00,
2013-08-29 10:27:00,80.9,65.7,29.77,South,188,6.0,6.0,60,0.00,,,0.00,VWS V14.01,2013-08-29 15:27:00,
2013-08-29 10:32:00,81.4,66.2,29.77,South,188,0.0,6.0,60,0.00,,,0.00,VWS V14.01,2013-08-29 15:32:00,
2013-08-29 10:37:00,81.8,64.1,29.77,South,188,5.0,7.0,55,0.00,,,0.00,VWS V14.01,2013-08-29 15:37:00,
2013-08-29 10:42:00,82.2,65.0,29.77,South,188,1.0,7.0,56,0.00,,,0.00,VWS V14.01,2013-08-29 15:42:00,
2013-08-29 10:47:00,82.6,65.3,29.77,South,188,2.0,7.0,56,0.00,,,0.00,VWS V14.01,2013-08-29 15:47:00,
2013-08-29 10:52:00,82.8,64.5,29.77,South,188,2.0,5.0,54,0.00,,,0.00,VWS V14.01,2013-08-29 15:52:00,
2013-08-29 10:57:00,83.2,64.3,29.77,South,188,2.0,6.0,53,0.00,,,0.00,VWS V14.01,2013-08-29 15:57:00,
2013-08-29 11:02:00,83.6,62.4,29.77,South,188,0.0,6.0,49,0.00,,,0.00,VWS V14.01,2013-08-29 16:02:00,
2013-08-29 11:07:00,84.0,63.4,29.77,South,188,3.0,4.0,50,0.00,,,0.00,VWS V14.01,2013-08-29 16:07:00,
2013-08-29 11:12:00,84.5,62.7,29.77,South,188,2.0,5.0,48,0.00,,,0.00,VWS V14.01,2013-08-29 16:12:00,
2013-08-29 11:17:00,84.9,63.0,29.77,South,188,2.0,7.0,48,0.00,,,0.00,VWS V14.01,2013-08-29 16:17:00,
2013-08-29 11:22:00,85.1,63.2,29.77,South,188,1.0,6.0,48,0.00,,,0.00,VWS V14.01,2013-08-29 16:22:00,
2013-08-29 11:27:00,85.7,63.2,29.77,South,188,1.0,6.0,47,0.00,,,0.00,VWS V14.01,2013-08-29 16:27:00,
2013-08-29 11:32:00,86.1,62.9,29.76,South,188,2.0,6.0,46,0.00,,,0.00,VWS V14.01,2013-08-29 16:32:00,
2013-08-29 11:37:00,86.5,62.7,29.76,South,188,0.0,6.0,45,0.00,,,0.00,VWS V14.01,2013-08-29 16:37:00,
2013-08-29 11:42:00,87.2,62.0,29.76,South,188,1.0,6.0,43,0.00,,,0.00,VWS V14.01,2013-08-29 16:42:00,
2013-08-29 11:47:00,88.0,62.0,29.76,South,188,1.0,6.0,42,0.00,,,0.00,VWS V14.01,2013-08-29 16:47:00,
2013-08-29 11:52:00,88.4,61.0,29.76,South,188,0.0,4.0,40,0.00,,,0.00,VWS V14.01,2013-08-29 16:52:00,
2013-08-29 11:57:00,88.8,62.1,29.76,South,189,0.0,6.0,41,0.00,,,0.00,VWS V14.01,2013-08-29 16:57:00,
2013-08-29 12:02:00,88.6,61.2,29.75,South,188,2.0,6.0,40,0.00,,,0.00,VWS V14.01,2013-08-29 17:02:00,
2013-08-29 12:07:00,87.6,64.3,29.75,ESE,120,0.0,5.0,46,0.00,,,0.00,VWS V14.01,2013-08-29 17:07:00,
2013-08-29 12:12:00,87.4,65.3,29.75,ESE,120,5.0,5.0,48,0.00,,,0.00,VWS V14.01,2013-08-29 17:12:00,
2013-08-29 12:17:00,87.8,66.3,29.75,ESE,119,0.0,5.0,49,0.00,,,0.00,VWS V14.01,2013-08-29 17:17:00,
2013-08-29 12:22:00,88.2,64.2,29.75,ENE,75,2.0,5.0,45,0.00,,,0.00,VWS V14.01,2013-08-29 17:22:00,
2013-08-29 12:27:00,88.4,65.6,29.75,ENE,75,0.0,5.0,47,0.00,,,0.00,VWS V14.01,2013-08-29 17:27:00,
2013-08-29 12:32:00,88.6,65.8,29.75,ENE,75,0.0,5.0,47,0.00,,,0.00,VWS V14.01,2013-08-29 17:32:00,
2013-08-29 12:37:00,88.6,65.8,29.75,ENE,75,1.0,5.0,47,0.00,,,0.00,VWS V14.01,2013-08-29 17:37:00,
2013-08-29 12:42:00,88.4,65.6,29.75,ENE,75,1.0,5.0,47,0.00,,,0.00,VWS V14.01,2013-08-29 17:42:00,
2013-08-29 12:47:00,89.0,65.6,29.75,ENE,75,0.0,5.0,46,0.00,,,0.00,VWS V14.01,2013-08-29 17:47:00,
2013-08-29 12:52:00,89.3,65.2,29.75,ENE,75,1.0,3.0,45,0.00,,,0.00,VWS V14.01,2013-08-29 17:52:00,
2013-08-29 12:57:00,89.5,64.7,29.75,ENE,75,2.0,3.0,44,0.00,,,0.00,VWS V14.01,2013-08-29 17:57:00,
2013-08-29 13:02:00,90.7,62.4,29.74,South,181,7.0,10.0,39,0.00,,,0.00,VWS V14.01,2013-08-29 18:02:00,
2013-08-29 13:07:00,92.5,54.7,29.74,South,175,1.0,8.0,28,0.00,,,0.00,VWS V14.01,2013-08-29 18:07:00,
2013-08-29 13:12:00,94.3,55.2,29.74,SSW,206,0.0,10.0,27,0.00,,,0.00,VWS V14.01,2013-08-29 18:12:00,
2013-08-29 13:17:00,95.1,54.9,29.74,South,184,5.0,10.0,26,0.00,,,0.00,VWS V14.01,2013-08-29 18:17:00,
2013-08-29 13:22:00,95.6,54.2,29.74,South,182,5.0,13.0,25,0.00,,,0.00,VWS V14.01,2013-08-29 18:22:00,
2013-08-29 13:27:00,95.6,54.2,29.74,South,184,7.0,13.0,25,0.00,,,0.00,VWS V14.01,2013-08-29 18:27:00,
2013-08-29 13:32:00,95.9,55.5,29.73,South,191,6.0,17.0,26,0.00,,,0.00,VWS V14.01,2013-08-29 18:32:00,
2013-08-29 13:37:00,96.1,55.7,29.73,SSW,192,6.0,10.0,26,0.00,,,0.00,VWS V14.01,2013-08-29 18:37:00,
2013-08-29 13:42:00,96.3,54.8,29.73,SSW,193,7.0,10.0,25,0.00,,,0.00,VWS V14.01,2013-08-29 18:42:00,
2013-08-29 13:47:00,96.6,55.0,29.72,South,189,2.0,10.0,25,0.00,,,0.00,VWS V14.01,2013-08-29 18:47:00,
2013-08-29 13:52:00,97.3,54.5,29.72,South,189,6.0,6.0,24,0.00,,,0.00,VWS V14.01,2013-08-29 18:52:00,
2013-08-29 13:57:00,97.5,54.7,29.72,SSW,196,5.0,11.0,24,0.00,,,0.00,VWS V14.01,2013-08-29 18:57:00,
2013-08-29 14:02:00,97.1,54.3,29.72,South,184,0.0,11.0,24,0.00,,,0.00,VWS V14.01,2013-08-29 19:02:00,
2013-08-29 14:07:00,97.1,56.5,29.72,South,174,5.0,7.0,26,0.00,,,0.00,VWS V14.01,2013-08-29 19:07:00,
2013-08-29 14:12:00,97.3,55.6,29.72,South,178,2.0,10.0,25,0.00,,,0.00,VWS V14.01,2013-08-29 19:12:00,
2013-08-29 14:17:00,97.8,54.9,29.72,South,184,3.0,10.0,24,0.00,,,0.00,VWS V14.01,2013-08-29 19:17:00,
2013-08-29 14:22:00,97.8,54.9,29.72,SSW,198,7.0,12.0,24,0.00,,,0.00,VWS V14.01,2013-08-29 19:22:00,
2013-08-29 14:27:00,97.5,55.8,29.72,SSW,192,5.0,12.0,25,0.00,,,0.00,VWS V14.01,2013-08-29 19:27:00,
2013-08-29 14:32:00,98.2,54.1,29.72,SSW,192,7.0,16.0,23,0.00,,,0.00,VWS V14.01,2013-08-29 19:32:00,
2013-08-29 14:37:00,98.2,52.9,29.72,SSW,202,9.0,12.0,22,0.00,,,0.00,VWS V14.01,2013-08-29 19:37:00,
2013-08-29 14:42:00,98.5,51.9,29.72,South,191,0.0,12.0,21,0.00,,,0.00,VWS V14.01,2013-08-29 19:42:00,
2013-08-29 14:47:00,98.7,54.5,29.71,South,191,2.0,12.0,23,0.00,,,0.00,VWS V14.01,2013-08-29 19:47:00,
2013-08-29 14:52:00,99.0,51.0,29.71,SSW,192,6.0,8.0,20,0.00,,,0.00,VWS V14.01,2013-08-29 19:52:00,
2013-08-29 14:57:00,99.0,52.3,29.71,South,189,7.0,8.0,21,0.00,,,0.00,VWS V14.01,2013-08-29 19:57:00,
2013-08-29 15:02:00,99.0,51.0,29.70,SSW,198,6.0,10.0,20,0.00,,,0.00,VWS V14.01,2013-08-29 20:02:00,
2013-08-29 15:07:00,99.0,51.0,29.70,SSW,205,2.0,14.0,20,0.00,,,0.00,VWS V14.01,2013-08-29 20:07:00,
2013-08-29 15:12:00,98.7,52.0,29.70,SSW,206,1.0,14.0,21,0.00,,,0.00,VWS V14.01,2013-08-29 20:12:00,
2013-08-29 15:17:00,98.5,51.9,29.70,SSW,206,0.0,14.0,21,0.00,,,0.00,VWS V14.01,2013-08-29 20:17:00,
2013-08-29 15:22:00,98.5,50.5,29.70,SSW,206,5.0,7.0,20,0.00,,,0.00,VWS V14.01,2013-08-29 20:22:00,
2013-08-29 15:27:00,99.0,51.0,29.70,SSW,200,9.0,11.0,20,0.00,,,0.00,VWS V14.01,2013-08-29 20:27:00,
2013-08-29 15:32:00,99.0,51.0,29.70,WSW,240,7.0,14.0,20,0.00,,,0.00,VWS V14.01,2013-08-29 20:32:00,
2013-08-29 15:37:00,98.7,47.9,29.70,WSW,243,10.0,17.0,18,0.00,,,0.00,VWS V14.01,2013-08-29 20:37:00,
2013-08-29 15:42:00,98.5,50.5,29.70,WSW,240,5.0,17.0,20,0.00,,,0.00,VWS V14.01,2013-08-29 20:42:00,
2013-08-29 15:47:00,98.5,50.5,29.69,South,188,0.0,17.0,20,0.00,,,0.00,VWS V14.01,2013-08-29 20:47:00,
2013-08-29 15:52:00,98.5,50.5,29.69,SW,233,3.0,7.0,20,0.00,,,0.00,VWS V14.01,2013-08-29 20:52:00,
2013-08-29 15:57:00,99.0,51.0,29.69,SW,223,5.0,10.0,20,0.00,,,0.00,VWS V14.01,2013-08-29 20:57:00,
2013-08-29 16:02:00,99.4,51.3,29.69,SSW,192,3.0,10.0,20,0.00,,,0.00,VWS V14.01,2013-08-29 21:02:00,
2013-08-29 16:07:00,99.4,51.3,29.69,SSW,192,2.0,10.0,20,0.00,,,0.00,VWS V14.01,2013-08-29 21:07:00,
2013-08-29 16:12:00,99.7,51.5,29.69,South,182,1.0,10.0,20,0.00,,,0.00,VWS V14.01,2013-08-29 21:12:00,
2013-08-29 16:17:00,99.4,49.9,29.69,South,171,6.0,10.0,19,0.00,,,0.00,VWS V14.01,2013-08-29 21:17:00,
2013-08-29 16:22:00,99.4,48.5,29.69,South,182,6.0,12.0,18,0.00,,,0.00,VWS V14.01,2013-08-29 21:22:00,
2013-08-29 16:27:00,99.2,49.7,29.69,SW,229,1.0,12.0,19,0.00,,,0.00,VWS V14.01,2013-08-29 21:27:00,
2013-08-29 16:32:00,98.5,51.9,29.68,North,1,1.0,12.0,21,0.00,,,0.00,VWS V14.01,2013-08-29 21:32:00,
2013-08-29 16:37:00,98.5,50.5,29.68,North,1,0.0,2.0,20,0.00,,,0.00,VWS V14.01,2013-08-29 21:37:00,
2013-08-29 16:42:00,99.2,46.8,29.68,SSW,193,5.0,7.0,17,0.00,,,0.00,VWS V14.01,2013-08-29 21:42:00,
2013-08-29 16:47:00,99.4,48.5,29.68,SSW,212,8.0,10.0,18,0.00,,,0.00,VWS V14.01,2013-08-29 21:47:00,
2013-08-29 16:52:00,99.2,48.3,29.68,South,182,4.0,10.0,18,0.00,,,0.00,VWS V14.01,2013-08-29 21:52:00,
2013-08-29 16:57:00,99.4,49.9,29.68,South,182,3.0,10.0,19,0.00,,,0.00,VWS V14.01,2013-08-29 21:57:00,
2013-08-29 17:02:00,99.4,49.9,29.68,South,182,0.0,10.0,19,0.00,,,0.00,VWS V14.01,2013-08-29 22:02:00,
2013-08-29 17:07:00,98.5,50.5,29.68,ESE,119,0.0,5.0,20,0.00,,,0.00,VWS V14.01,2013-08-29 22:07:00,
2013-08-29 17:12:00,98.0,53.9,29.68,ESE,119,2.0,5.0,23,0.00,,,0.00,VWS V14.01,2013-08-29 22:12:00,
2013-08-29 17:17:00,97.3,55.6,29.69,ESE,119,0.0,5.0,25,0.00,,,0.00,VWS V14.01,2013-08-29 22:17:00,
2013-08-29 17:22:00,96.1,55.7,29.69,ESE,119,0.0,4.0,26,0.00,,,0.00,VWS V14.01,2013-08-29 22:22:00,
2013-08-29 17:27:00,95.9,54.5,29.69,SE,124,2.0,4.0,25,0.00,,,0.00,VWS V14.01,2013-08-29 22:27:00,
2013-08-29 17:32:00,95.6,55.3,29.69,East,99,0.0,5.0,26,0.00,,,0.00,VWS V14.01,2013-08-29 22:32:00,
2013-08-29 17:37:00,95.4,55.1,29.69,East,99,0.0,2.0,26,0.00,,,0.00,VWS V14.01,2013-08-29 22:37:00,
2013-08-29 17:42:00,95.6,54.2,29.69,East,99,0.0,2.0,25,0.00,,,0.00,VWS V14.01,2013-08-29 22:42:00,
2013-08-29 17:47:00,95.6,54.2,29.69,East,83,0.0,5.0,25,0.00,,,0.00,VWS V14.01,2013-08-29 22:47:00,
2013-08-29 17:52:00,95.1,54.9,29.69,East,83,0.0,2.0,26,0.00,,,0.00,VWS V14.01,2013-08-29 22:52:00,
2013-08-29 17:57:00,95.1,52.7,29.69,East,82,0.0,3.0,24,0.00,,,0.00,VWS V14.01,2013-08-29 22:57:00,
2013-08-29 18:02:00,95.4,54.0,29.69,East,82,0.0,3.0,25,0.00,,,0.00,VWS V14.01,2013-08-29 23:02:00,
2013-08-29 18:07:00,95.1,54.9,29.69,East,82,0.0,0.0,26,0.00,,,0.00,VWS V14.01,2013-08-29 23:07:00,
2013-08-29 18:12:00,94.9,55.7,29.69,East,82,0.0,0.0,27,0.00,,,0.00,VWS V14.01,2013-08-29 23:12:00,
2013-08-29 18:17:00,94.9,57.7,29.69,East,82,0.0,0.0,29,0.00,,,0.00,VWS V14.01,2013-08-29 23:17:00,
2013-08-29 18:22:00,94.3,61.7,29.69,East,82,0.0,2.0,34,0.00,,,0.00,VWS V14.01,2013-08-29 23:22:00,
2013-08-29 18:27:00,93.6,59.3,29.69,East,80,2.0,5.0,32,0.00,,,0.00,VWS V14.01,2013-08-29 23:27:00,
2013-08-29 18:32:00,92.9,59.6,29.69,East,80,1.0,5.0,33,0.00,,,0.00,VWS V14.01,2013-08-29 23:32:00,
2013-08-29 18:37:00,92.9,59.6,29.69,East,80,0.0,0.0,33,0.00,,,0.00,VWS V14.01,2013-08-29 23:37:00,
2013-08-29 18:42:00,92.5,60.9,29.69,East,80,0.0,0.0,35,0.00,,,0.00,VWS V14.01,2013-08-29 23:42:00,
2013-08-29 18:47:00,92.3,61.5,29.69,East,80,0.0,0.0,36,0.00,,,0.00,VWS V14.01,2013-08-29 23:47:00,
2013-08-29 18:52:00,91.6,63.2,29.69,East,80,0.0,0.0,39,0.00,,,0.00,VWS V14.01,2013-08-29 23:52:00,
2013-08-29 18:57:00,91.4,63.0,29.69,East,80,0.0,0.0,39,0.00,,,0.00,VWS V14.01,2013-08-29 23:57:00,
2013-08-29 19:02:00,91.4,61.5,29.69,East,80,0.0,0.0,37,0.00,,,0.00,VWS V14.01,2013-08-30 00:02:00,
2013-08-29 19:07:00,91.2,62.1,29.69,East,80,0.0,0.0,38,0.00,,,0.00,VWS V14.01,2013-08-30 00:07:00,
2013-08-29 19:12:00,91.0,63.3,29.69,East,80,1.0,2.0,40,0.00,,,0.00,VWS V14.01,2013-08-30 00:12:00,
2013-08-29 19:17:00,91.0,62.6,29.70,East,80,2.0,4.0,39,0.00,,,0.00,VWS V14.01,2013-08-30 00:17:00,
2013-08-29 19:22:00,90.7,63.1,29.70,East,80,0.0,3.0,40,0.00,,,0.00,VWS V14.01,2013-08-30 00:22:00,
2013-08-29 19:27:00,90.3,64.8,29.70,East,80,0.0,3.0,43,0.00,,,0.00,VWS V14.01,2013-08-30 00:27:00,
2013-08-29 19:32:00,89.7,66.2,29.70,ENE,78,0.0,3.0,46,0.00,,,0.00,VWS V14.01,2013-08-30 00:32:00,
2013-08-29 19:37:00,89.0,66.8,29.70,ENE,78,0.0,3.0,48,0.00,,,0.00,VWS V14.01,2013-08-30 00:37:00,
2013-08-29 19:42:00,88.6,68.2,29.70,ENE,78,0.0,3.0,51,0.00,,,0.00,VWS V14.01,2013-08-30 00:42:00,
2013-08-29 19:47:00,88.2,67.8,29.71,ENE,78,0.0,3.0,51,0.00,,,0.00,VWS V14.01,2013-08-30 00:47:00,
2013-08-29 19:52:00,87.6,67.8,29.71,ENE,78,1.0,2.0,52,0.00,,,0.00,VWS V14.01,2013-08-30 00:52:00,
2013-08-29 19:57:00,87.4,67.6,29.71,ENE,78,0.0,2.0,52,0.00,,,0.00,VWS V14.01,2013-08-30 00:57:00,
2013-08-29 20:02:00,87.0,68.4,29.71,ENE,78,0.0,2.0,54,0.00,,,0.00,VWS V14.01,2013-08-30 01:02:00,
2013-08-29 20:07:00,86.5,67.9,29.71,ENE,78,0.0,0.0,54,0.00,,,0.00,VWS V14.01,2013-08-30 01:07:00,
2013-08-29 20:12:00,86.3,68.2,29.71,ENE,78,0.0,0.0,55,0.00,,,0.00,VWS V14.01,2013-08-30 01:12:00,
2013-08-29 20:17:00,86.1,67.0,29.71,ENE,78,0.0,0.0,53,0.00,,,0.00,VWS V14.01,2013-08-30 01:17:00,
2013-08-29 20:22:00,86.1,67.5,29.71,ENE,78,0.0,0.0,54,0.00,,,0.00,VWS V14.01,2013-08-30 01:22:00,
2013-08-29 20:27:00,85.7,69.2,29.71,ENE,78,0.0,0.0,58,0.00,,,0.00,VWS V14.01,2013-08-30 01:27:00,
2013-08-29 20:32:00,85.3,67.8,29.71,ENE,78,2.0,3.0,56,0.00,,,0.00,VWS V14.01,2013-08-30 01:32:00,
2013-08-29 20:37:00,84.9,69.0,29.71,ENE,78,0.0,2.0,59,0.00,,,0.00,VWS V14.01,2013-08-30 01:37:00,
2013-08-29 20:42:00,84.5,68.6,29.71,ENE,78,1.0,2.0,59,0.00,,,0.00,VWS V14.01,2013-08-30 01:42:00,
2013-08-29 20:47:00,84.5,69.1,29.71,ENE,78,0.0,2.0,60,0.00,,,0.00,VWS V14.01,2013-08-30 01:47:00,
2013-08-29 20:52:00,84.3,68.9,29.71,ENE,78,0.0,0.0,60,0.00,,,0.00,VWS V14.01,2013-08-30 01:52:00,
2013-08-29 20:57:00,84.1,69.2,29.71,ENE,78,0.0,0.0,61,0.00,,,0.00,VWS V14.01,2013-08-30 01:57:00,
2013-08-29 21:02:00,84.0,69.1,29.72,ENE,78,0.0,0.0,61,0.00,,,0.00,VWS V14.01,2013-08-30 02:02:00,
2013-08-29 21:07:00,83.4,69.0,29.72,ENE,78,0.0,0.0,62,0.00,,,0.00,VWS V14.01,2013-08-30 02:07:00,
2013-08-29 21:12:00,83.0,69.6,29.72,ENE,78,0.0,0.0,64,0.00,,,0.00,VWS V14.01,2013-08-30 02:12:00,
2013-08-29 21:17:00,82.8,69.8,29.71,ENE,78,0.0,0.0,65,0.00,,,0.00,VWS V14.01,2013-08-30 02:17:00,
2013-08-29 21:22:00,82.4,69.9,29.71,ENE,78,0.0,0.0,66,0.00,,,0.00,VWS V14.01,2013-08-30 02:22:00,
2013-08-29 21:27:00,82.0,70.0,29.71,ENE,78,0.0,0.0,67,0.00,,,0.00,VWS V14.01,2013-08-30 02:27:00,
2013-08-29 21:32:00,81.8,69.8,29.72,ENE,78,0.0,0.0,67,0.00,,,0.00,VWS V14.01,2013-08-30 02:32:00,
2013-08-29 21:37:00,81.6,70.0,29.72,ENE,78,0.0,0.0,68,0.00,,,0.00,VWS V14.01,2013-08-30 02:37:00,
2013-08-29 21:42:00,81.6,69.6,29.72,ENE,78,0.0,0.0,67,0.00,,,0.00,VWS V14.01,2013-08-30 02:42:00,
2013-08-29 21:47:00,81.8,68.4,29.72,ENE,78,2.0,3.0,64,0.00,,,0.00,VWS V14.01,2013-08-30 02:47:00,
2013-08-29 21:52:00,81.2,70.1,29.72,ENE,78,2.0,3.0,69,0.00,,,0.00,VWS V14.01,2013-08-30 02:52:00,
2013-08-29 21:57:00,80.9,70.2,29.72,ENE,78,2.0,3.0,70,0.00,,,0.00,VWS V14.01,2013-08-30 02:57:00,
2013-08-29 22:02:00,80.9,68.9,29.72,ENE,76,2.0,5.0,67,0.00,,,0.00,VWS V14.01,2013-08-30 03:02:00,
2013-08-29 22:07:00,80.7,71.7,29.72,ENE,71,6.0,7.0,74,0.00,,,0.00,VWS V14.01,2013-08-30 03:07:00,
2013-08-29 22:12:00,80.3,72.8,29.72,ENE,71,0.0,7.0,78,0.00,,,0.00,VWS V14.01,2013-08-30 03:12:00,
2013-08-29 22:17:00,80.1,72.6,29.70,ENE,71,0.0,7.0,78,0.00,,,0.00,VWS V14.01,2013-08-30 03:17:00,
2013-08-29 22:22:00,79.9,72.8,29.70,ENE,71,0.0,0.0,79,0.00,,,0.00,VWS V14.01,2013-08-30 03:22:00,
2013-08-29 22:27:00,79.8,73.1,29.70,ENE,71,0.0,0.0,80,0.00,,,0.00,VWS V14.01,2013-08-30 03:27:00,
2013-08-29 22:32:00,79.9,72.1,29.71,ENE,71,0.0,0.0,77,0.00,,,0.00,VWS V14.01,2013-08-30 03:32:00,
2013-08-29 22:37:00,79.9,73.6,29.71,ENE,71,0.0,0.0,81,0.00,,,0.00,VWS V14.01,2013-08-30 03:37:00,
2013-08-29 22:42:00,79.8,73.8,29.71,ENE,71,0.0,0.0,82,0.00,,,0.00,VWS V14.01,2013-08-30 03:42:00,
2013-08-29 22:47:00,79.6,71.0,29.71,ENE,71,0.0,0.0,75,0.00,,,0.00,VWS V14.01,2013-08-30 03:47:00,
2013-08-29 22:52:00,79.4,70.8,29.71,ENE,71,0.0,0.0,75,0.00,,,0.00,VWS V14.01,2013-08-30 03:52:00,
2013-08-29 22:57:00,79.4,67.9,29.71,ENE,71,0.0,0.0,68,0.00,,,0.00,VWS V14.01,2013-08-30 03:57:00,
2013-08-29 23:01:00,79.4,67.5,29.71,ENE,71,0.0,0.0,67,0.00,,,0.00,VWS V14.01,2013-08-30 04:01:00,
2013-08-29 23:06:00,79.4,66.6,29.72,ENE,71,0.0,0.0,65,0.00,,,0.00,VWS V14.01,2013-08-30 04:06:00,
2013-08-29 23:11:00,79.4,66.2,29.72,ENE,71,0.0,0.0,64,0.00,,,0.00,VWS V14.01,2013-08-30 04:11:00,
2013-08-29 23:16:00,79.2,66.9,29.72,ENE,71,0.0,0.0,66,0.00,,,0.00,VWS V14.01,2013-08-30 04:16:00,
2013-08-29 23:21:00,79.0,65.8,29.71,ENE,71,0.0,0.0,64,0.00,,,0.00,VWS V14.01,2013-08-30 04:21:00,
2013-08-29 23:26:00,79.0,62.5,29.71,ENE,71,0.0,0.0,57,0.00,,,0.00,VWS V14.01,2013-08-30 04:26:00,
2013-08-29 23:31:00,79.2,61.7,29.71,ENE,71,0.0,0.0,55,0.00,,,0.00,VWS V14.01,2013-08-30 04:31:00,
2013-08-29 23:36:00,79.2,61.7,29.71,ENE,71,0.0,0.0,55,0.00,,,0.00,VWS V14.01,2013-08-30 04:36:00,
2013-08-29 23:41:00,79.0,63.9,29.71,ENE,71,0.0,2.0,60,0.00,,,0.00,VWS V14.01,2013-08-30 04:41:00,
2013-08-29 23:46:00,78.5,64.0,29.71,ENE,71,1.0,2.0,61,0.00,,,0.00,VWS V14.01,2013-08-30 04:46:00,
2013-08-29 23:51:00,78.5,63.0,29.71,ENE,71,1.0,2.0,59,0.00,,,0.00,VWS V14.01,2013-08-30 04:51:00,
2013-08-29 23:56:00,78.3,63.8,29.71,ENE,71,2.0,2.0,61,0.00,,,0.00,VWS V14.01,2013-08-30 04:56:00,